QPF
0.00 0.00 0.00 0.00 0.00 0.00 0.00 0.00 0.00 0.00 0.00 0.00 0.00 0.00 0.00 0.00 0.00 0.00 0.00 0.00 0.00 0.00 0.00 0.00 0.00 0.00 0.00 0.00 0.00 0.00 0.00 0.00 0.00 0.00 0.00 0.00 0.00 0.00 0.00 0.00 0.00 0.00 0.00 0.00 0.00
0.00 0.00 0.00 0.00 0.00 0.00 0.00 0.00 0.00 0.00 0.00 0.00 0.00 0.00 0.00 0.00 0.00 0.00 0.00 0.00 0.00 0.00 0.00 0.00 0.00 0.00 0.00 0.00 0.00 0.00 0.00 0.00 0.00 0.00 0.00 0.00 0.00 0.00 0.00 0.00 0.00 0.00 0.00 0.00 0.00
0.00 0.00 0.00 0.00 0.00 0.00 0.00 0.00 0.00 0.00 0.00 0.00 0.00 0.00 0.00 0.00 0.00 0.00 0.00 0.00 0.00 0.00 0.00 0.00 0.00 0.00 0.00 0.00 0.00 0.00 0.00 0.00 0.00 0.00 0.00 0.00 0.00 0.00 0.00 0.00 0.00 0.00 0.00 0.00 0.00
0.00 0.00 0.00 0.00 0.00 0.00 0.00 0.00 0.00 0.00 0.00 0.00 0.00 0.00 0.00 0.00 0.00 0.00 0.00 0.00 0.00 0.00 0.00 0.00 0.00 0.00 0.00 0.00 0.00 0.00 0.00 0.00 0.00 0.00 0.00 0.00 0.00 0.00 0.00 0.00 0.00 0.00 0.00 0.00 0.00
0.00 0.00 0.00 0.00 0.00 0.00 0.00 0.00 0.00 0.00 0.00 0.00 0.00 0.00 0.00 0.00 0.00 0.00 0.00 0.00 0.00 0.00 0.00 0.00 0.00 0.00 0.00 0.00 0.00 0.00 0.00 0.00 0.00 0.00 0.00 0.00 0.00 0.00 0.00 0.00 0.00 0.00 0.00 0.00 0.00
0.00 0.00 0.00 0.00 0.00 0.00 0.00 0.00 0.00 0.00 0.00 0.00 0.00 0.00 0.00 0.00 0.00 0.00 0.00 0.00 0.00 0.00 0.00 0.00 0.00 0.00 0.00 0.00 0.00 0.00 0.00 0.00 0.00 0.00 0.00 0.00 0.00 0.00 0.00 0.00 0.00 0.00 0.00 0.00 0.00
0.00 0.00 0.00 0.00 0.00 0.00 0.00 0.00 0.00 0.00 0.00 0.00 0.00 0.00 0.00 0.00 0.00 0.00 0.00 0.00 0.00 0.00 0.00 0.00 0.00 0.00 0.00 0.00 0.00 0.00 0.00 0.00 0.00 0.00 0.00 0.00 0.09 0.00 0.00 0.00 0.00 0.00 0.00 0.00 0.00
0.00 0.00 0.00 0.00 0.00 0.00 0.00 0.00 0.00 0.00 0.00 0.00 0.00 0.00 0.00 0.00 0.00 0.00 0.00 0.00 0.00 0.00 0.00 0.00 0.00 0.00 0.00 0.00 0.00 0.00 0.00 0.02 0.01 0.00 0.00 0.00 0.05 0.00 0.00 0.00 0.00 0.00 0.00 0.00 0.00
0.00 0.00 0.00 0.00 0.00 0.00 0.00 0.00 0.00 0.00 0.00 0.00 0.00 0.00 0.00 0.00 0.00 0.00 0.00 0.00 0.00 0.00 0.00 0.00 0.00 0.00 0.00 0.00 0.00 0.00 0.04 0.02 0.00 0.00 0.00 0.00 0.00 0.00 0.00 0.00 0.00 0.00 0.00 0.00 0.00
0.00 0.00 0.00 0.00 0.00 0.00 0.00 0.00 0.00 0.00 0.00 0.00 0.00 0.00 0.00 0.00 0.00 0.00 0.00 0.00 0.00 0.00 0.00 0.00 0.00 0.00 0.00 0.00 0.00 0.00 0.00 0.00 0.00 0.00 0.00 0.00 0.00 0.00 0.00 0.00 0.00 0.00 0.00 0.00 0.00
0.00 0.00 0.00 0.00 0.00 0.00 0.00 0.00 0.00 0.00 0.00 0.00 0.00 0.00 0.00 0.00 0.00 0.00 0.00 0.00 0.00 0.00 0.00 0.00 0.00 0.00 0.00 0.00 0.00 0.00 0.00 0.00 0.00 0.00 0.00 0.00 0.00 0.00 0.00 0.00 0.00 0.00 0.00 0.00 0.00
0.00 0.00 0.00 0.00 0.00 0.00 0.00 0.00 0.00 0.00 0.00 0.00 0.00 0.00 0.00 0.00 0.00 0.00 0.00 0.00 0.00 0.00 0.00 0.00 0.00 0.00 0.00 0.00 0.00 0.00 0.00 0.00 0.00 0.00 0.00 0.00 0.00 0.00 0.00 0.00 0.00 0.00 0.00 0.00 0.00
0.00 0.00 0.00 0.00 0.00 0.00 0.00 0.00 0.00 0.00 0.00 0.00 0.00 0.00 0.00 0.00 0.00 0.00 0.00 0.00 0.00 0.00 0.00 0.00 0.00 0.00 0.00 0.00 0.00 0.00 0.00 0.00 0.00 0.00 0.00 0.00 0.00 0.00 0.00 0.00 0.00 0.00 0.00 0.00 0.00
0.00 0.00 0.00 0.00 0.00 0.00 0.00 0.00 0.00 0.00 0.00 0.00 0.00 0.00 0.00 0.00 0.00 0.00 0.00 0.00 0.00 0.00 0.00 0.00 0.00 0.00 0.00 0.00 0.00 0.00 0.00 0.00 0.00 0.00 0.00 0.00 0.00 0.00 0.00 0.00 0.00 0.00 0.00 0.00 0.00
0.00 0.00 0.00 0.00 0.00 0.00 0.00 0.00 0.00 0.00 0.00 0.00 0.00 0.00 0.00 0.00 0.00 0.00 0.00 0.00 0.00 0.00 0.00 0.00 0.00 0.00 0.00 0.00 0.00 0.00 0.00 0.00 0.00 0.00 0.00 0.00 0.00 0.00 0.00 0.00 0.00 0.00 0.00 0.00 0.00
0.00 0.00 0.00 0.00 0.00 0.00 0.00 0.00 0.00 0.00 0.00 0.00 0.00 0.00 0.00 0.00 0.00 0.00 0.00 0.00 0.00 0.00 0.00 0.00 0.00 0.00 0.00 0.00 0.00 0.00 0.00 0.00 0.00 0.00 0.00 0.00 0.00 0.00 0.00 0.00 0.00 0.00 0.00 0.00 0.00
0.00 0.00 0.00 0.00 0.00 0.00 0.00 0.00 0.00 0.00 0.00 0.00 0.00 0.00 0.00 0.00 0.00 0.00 0.00 0.00 0.00 0.00 0.00 0.00 0.00 0.00 0.00 0.00 0.00 0.00 0.00 0.00 0.00 0.00 0.00 0.00 0.00 0.00 0.00 0.00 0.00 0.00 0.00 0.00 0.00
0.00 0.00 0.00 0.00 0.00 0.00 0.00 0.00 0.00 0.00 0.00 0.00 0.00 0.00 0.00 0.00 0.00 0.00 0.00 0.00 0.00 0.00 0.00 0.00 0.00 0.00 0.00 0.00 0.00 0.00 0.00 0.00 0.00 0.00 0.00 0.00 0.00 0.00 0.00 0.00 0.00 0.00 0.00 0.00 0.00
0.00 0.00 0.00 0.00 0.00 0.00 0.00 0.00 0.00 0.00 0.00 0.00 0.00 0.00 0.00 0.00 0.00 0.00 0.00 0.00 0.00 0.00 0.00 0.00 0.00 0.00 0.00 0.00 0.00 0.00 0.00 0.00 0.00 0.00 0.00 0.00 0.00 0.00 0.00 0.00 0.00 0.00 0.00 0.00 0.00
0.00 0.00 0.00 0.00 0.00 0.00 0.00 0.00 0.00 0.00 0.00 0.00 0.00 0.00 0.00 0.00 0.00 0.00 0.00 0.00 0.00 0.00 0.00 0.00 0.00 0.00 0.00 0.00 0.00 0.00 0.00 0.00 0.00 0.00 0.00 0.00 0.00 0.00 0.00 0.00 0.00 0.00 0.00 0.00 0.00
0.00 0.00 0.00 0.00 0.00 0.00 0.00 0.00 0.00 0.00 0.00 0.00 0.00 0.00 0.00 0.00 0.00 0.00 0.00 0.00 0.00 0.00 0.00 0.00 0.00 0.00 0.00 0.00 0.00 0.00 0.00 0.00 0.00 0.00 0.00 0.00 0.00 0.00 0.00 0.00 0.00 0.00 0.00 0.00 0.00
0.00 0.00 0.00 0.00 0.00 0.00 0.00 0.00 0.00 0.00 0.00 0.00 0.00 0.00 0.00 0.00 0.00 0.00 0.00 0.00 0.00 0.00 0.00 0.00 0.00 0.00 0.00 0.00 0.00 0.00 0.00 0.00 0.00 0.00 0.00 0.00 0.00 0.00 0.00 0.00 0.00 0.00 0.00 0.00 0.00
0.00 0.00 0.00 0.00 0.00 0.00 0.00 0.00 0.00 0.00 0.00 0.00 0.00 0.00 0.00 0.00 0.00 0.00 0.00 0.00 0.00 0.00 0.00 0.00 0.00 0.00 0.00 0.00 0.00 0.00 0.00 0.00 0.00 0.00 0.00 0.00 0.00 0.00 0.00 0.00 0.00 0.00 0.00 0.00 0.00
0.00 0.00 0.00 0.00 0.00 0.00 0.00 0.00 0.00 0.00 0.00 0.00 0.00 0.00 0.00 0.00 0.00 0.00 0.00 0.00 0.00 0.00 0.00 0.00 0.00 0.00 0.00 0.00 0.00 0.00 0.00 0.00 0.00 0.00 0.00 0.00 0.00 0.00 0.00 0.00 0.00 0.00 0.00 0.00 0.00
0.00 0.00 0.00 0.00 0.00 0.00 0.00 0.00 0.00 0.00 0.00 0.00 0.00 0.00 0.00 0.00 0.00 0.00 0.00 0.00 0.00 0.00 0.00 0.00 0.00 0.00 0.00 0.00 0.00 0.00 0.00 0.00 0.00 0.00 0.00 0.00 0.00 0.00 0.00 0.00 0.00 0.00 0.00 0.00 0.00
0.00 0.00 0.00 0.00 0.00 0.00 0.00 0.00 0.00 0.00 0.00 0.00 0.00 0.00 0.00 0.00 0.00 0.00 0.00 0.00 0.00 0.00 0.00 0.00 0.00 0.00 0.00 0.00 0.00 0.00 0.00 0.00 0.00 0.00 0.00 0.00 0.00 0.00 0.00 0.00 0.00 0.00 0.00 0.00 0.00
0.00 0.00 0.00 0.00 0.00 0.00 0.00 0.00 0.00 0.00 0.00 0.00 0.00 0.00 0.00 0.00 0.00 0.00 0.00 0.00 0.00 0.00 0.00 0.00 0.00 0.00 0.00 0.00 0.00 0.00 0.00 0.00 0.00 0.00 0.00 0.00 0.00 0.00 0.00 0.00 0.00 0.00 0.00 0.00 0.00
MSLP
1017.02 1016.67 1016.26 1015.90 1015.54 1015.26 1014.90 1014.47 1013.98 1013.58 1013.15 1012.77 1012.19 1011.75 1011.21 1010.70 1008.98 1007.51 1005.97 1005.66 1005.44 1005.42 1005.70 1003.96 1003.55 1002.42 1001.97 1000.53 1000.29 999.93 999.14 999.47 1000.01 1000.50 1001.77 1002.59 1002.73 1003.51 1003.89 1004.32 1004.51 1005.04 1005.66 1007.10 1008.58
1017.09 1016.66 1016.29 1015.89 1015.45 1015.13 1014.80 1014.38 1014.01 1013.61 1013.09 1012.72 1012.23 1011.69 1011.24 1010.66 1008.73 1005.87 1005.66 1005.25 1005.50 1005.52 1004.75 1003.07 1001.58 1001.09 999.83 999.82 999.34 998.65 998.87 999.73 1000.12 1000.17 1001.29 1002.24 1002.52 1003.34 1003.73 1004.31 1004.95 1005.06 1006.06 1007.51 1008.64
1017.16 1016.77 1016.35 1015.92 1015.47 1015.06 1014.67 1014.37 1014.01 1013.61 1013.18 1012.64 1012.13 1011.60 1011.05 1010.65 1007.27 1004.02 1005.29 1005.25 1005.43 1005.59 1004.27 1002.67 1001.80 1000.73 999.03 999.39 999.34 999.27 999.13 999.72 1000.24 1000.83 1000.94 1001.84 1002.36 1002.72 1002.96 1003.05 1004.24 1005.38 1006.67 1007.59 1008.37
1017.24 1016.77 1016.33 1015.89 1015.45 1014.99 1014.58 1014.23 1013.85 1013.50 1013.16 1012.67 1012.06 1011.53 1010.90 1009.42 1005.42 1004.40 1005.22 1005.28 1005.51 1005.26 1004.05 1002.46 1001.30 1000.00 998.82 998.72 999.39 998.97 999.51 999.92 1000.19 1000.89 1001.03 1001.23 1001.96 1002.39 1002.92 1003.33 1004.16 1005.51 1006.73 1007.52 1007.98
1017.30 1016.81 1016.33 1015.83 1015.33 1014.90 1014.44 1014.02 1013.66 1013.30 1012.95 1012.61 1012.05 1011.57 1010.04 1007.34 1004.28 1004.38 1004.98 1005.26 1005.05 1005.04 1003.41 1002.04 1000.88 999.76 998.84 998.92 999.19 998.87 999.10 999.55 1000.11 1000.54 1000.63 1001.32 1001.60 1002.09 1002.89 1003.60 1004.58 1005.70 1006.67 1007.22 1007.60
1017.19 1016.76 1016.25 1015.71 1015.18 1014.71 1014.20 1013.75 1013.35 1012.99 1012.68 1012.40 1011.95 1011.67 1009.71 1005.62 1003.72 1003.73 1004.05 1004.22 1003.80 1003.77 1002.69 1001.87 1000.79 1000.16 999.72 999.36 999.30 999.44 999.07 999.34 999.71 1000.08 1000.45 1001.16 1002.14 1002.08 1002.93 1003.74 1004.80 1005.76 1006.44 1006.95 1007.20
1017.08 1016.60 1016.15 1015.65 1015.09 1014.47 1013.95 1013.51 1012.97 1012.59 1012.27 1011.96 1011.74 1010.98 1007.67 1004.17 1003.65 1003.50 1003.73 1003.19 1003.34 1002.91 1002.05 1001.48 1000.99 1000.73 999.67 999.28 999.80 999.55 998.95 999.01 999.15 999.47 1000.07 1001.25 1003.22 1002.28 1002.87 1003.69 1004.72 1005.64 1006.20 1006.58 1006.91
1017.06 1016.56 1016.04 1015.55 1014.95 1014.30 1013.73 1013.19 1012.59 1012.09 1011.72 1011.37 1011.30 1009.94 1005.54 1003.35 1003.55 1003.63 1003.25 1002.95 1002.86 1002.59 1002.09 1001.29 1001.46 1001.02 1000.03 999.66 999.55 999.30 999.13 998.80 999.10 999.30 1000.00 1000.93 1002.69 1002.34 1002.70 1003.35 1004.23 1005.15 1005.84 1006.32 1006.76
1016.93 1016.42 1015.86 1015.32 1014.77 1014.10 1013.37 1012.74 1011.94 1011.48 1011.12 1010.89 1010.40 1008.05 1004.00 1004.03 1003.50 1002.86 1002.64 1002.23 1002.48 1002.38 1002.28 1002.28 1001.94 1001.05 1000.21 999.88 998.70 998.74 999.91 1000.41 998.98 999.42 999.61 999.97 999.95 1001.56 1002.23 1002.83 1003.67 1004.63 1005.45 1006.05 1006.56
1016.74 1016.22 1015.61 1014.98 1014.44 1013.79 1012.81 1012.12 1011.36 1011.08 1010.57 1009.48 1008.16 1006.53 1003.63 1002.19 1001.98 1002.26 1002.34 1001.88 1001.92 1001.97 1002.16 1002.17 1001.46 1000.63 1000.01 999.34 997.95 998.62 998.54 998.49 998.80 999.39 999.58 999.36 999.53 1000.71 1001.69 1002.19 1002.94 1003.86 1004.73 1005.51 1006.07
1016.55 1015.94 1015.31 1014.65 1014.09 1013.68 1012.66 1010.57 1010.40 1009.05 1007.72 1004.79 1003.89 1003.05 1002.41 1002.03 1002.56 1002.35 1002.14 1001.84 1001.44 1001.45 1001.15 1001.12 1000.46 999.55 999.23 998.95 998.31 998.74 998.04 999.65 998.52 999.76 999.86 999.27 999.27 999.78 1000.93 1001.55 1001.95 1002.74 1003.95 1004.75 1005.45
1016.41 1015.78 1015.10 1014.37 1013.73 1013.32 1012.79 1008.76 1007.04 1006.95 1005.10 1003.82 1003.39 1002.77 1002.74 1002.25 1001.62 1001.54 1001.86 1001.47 1001.09 1000.59 1000.60 1000.06 999.51 999.25 999.09 998.70 998.77 998.83 998.44 997.87 998.26 999.34 999.78 999.06 998.80 998.72 999.99 1000.84 1001.17 1001.77 1002.62 1003.76 1004.57
1016.20 1015.58 1014.88 1013.95 1013.20 1012.22 1009.56 1007.39 1007.09 1006.67 1004.55 1002.19 1002.24 1002.03 1001.93 1002.20 1000.82 1000.73 1001.42 1000.92 1000.61 1000.21 999.73 999.20 998.72 999.28 998.92 998.76 998.55 998.96 998.22 997.72 998.10 998.74 999.02 998.71 997.95 998.33 998.75 999.97 1000.50 1000.98 1001.55 1002.33 1003.36
1015.98 1015.40 1014.79 1013.79 1012.79 1009.33 1007.77 1007.13 1007.01 1006.78 1003.81 1001.30 1001.45 1001.06 1001.29 1001.27 1000.22 999.91 1000.95 1000.59 1000.13 999.86 999.49 999.25 998.92 998.54 998.74 998.46 998.65 998.54 998.40 998.34 998.47 999.14 998.25 998.45 997.85 997.40 998.02 998.72 999.18 999.89 1000.53 1001.14 1002.21
1015.68 1015.17 1014.67 1014.77 1012.04 1008.55 1007.50 1007.18 1006.99 1006.34 1001.63 1000.28 1000.32 1000.46 1000.53 1000.08 999.31 1000.12 1000.64 1000.31 999.92 999.88 999.62 999.02 998.93 998.62 998.64 998.55 999.06 998.68 998.53 998.49 998.71 998.71 998.42 997.67 997.59 996.75 997.12 997.10 997.62 998.95 999.48 1000.23 1000.86
1015.17 1014.74 1014.31 1012.45 1011.80 1008.36 1007.75 1007.34 1006.84 1004.52 999.69 999.38 999.86 1000.14 999.95 999.69 999.42 999.95 1000.39 1000.60 1000.05 999.66 999.45 998.82 998.79 998.89 999.04 999.00 998.93 998.89 998.66 999.28 999.27 998.88 997.78 997.17 997.09 996.23 996.41 997.32 997.36 997.93 998.76 999.26 999.90
1014.44 1014.07 1014.11 1011.47 1008.11 1008.03 1007.74 1006.76 1004.36 1000.84 998.60 998.71 998.98 999.28 999.12 998.97 998.96 999.81 1000.00 1000.06 999.49 999.25 998.86 999.19 998.98 999.37 999.09 998.65 998.63 998.67 998.65 998.53 998.22 997.39 996.66 996.30 996.48 996.51 996.71 996.99 997.60 998.34 998.43 998.85 999.18
1013.67 1013.01 1011.39 1010.19 1008.46 1008.41 1007.38 1005.48 1001.67 998.18 997.62 997.56 997.84 998.49 998.21 998.15 998.47 999.01 999.18 998.93 999.01 998.36 997.20 997.83 998.15 998.54 998.63 998.54 997.99 998.58 998.30 997.71 996.96 996.22 995.59 995.62 996.15 996.66 996.98 997.34 998.00 998.37 998.59 998.96 999.25
1012.95 1009.71 1009.14 1007.74 1008.56 1008.15 1006.30 1002.81 998.97 997.62 997.27 997.36 997.57 997.62 997.49 997.78 997.86 998.21 998.27 998.05 997.84 998.13 997.39 996.54 997.05 997.47 998.04 998.51 998.13 997.44 998.02 997.57 996.60 995.82 995.76 995.65 996.17 996.98 997.35 997.53 998.16 998.50 998.91 999.20 999.58
1012.90 1008.96 1006.53 1007.07 1007.63 1007.27 1005.15 1001.15 998.87 998.43 997.99 997.12 996.74 997.01 996.76 997.31 997.81 997.57 997.55 997.41 997.22 997.81 997.59 996.72 996.57 997.37 998.08 998.24 998.01 997.64 997.19 996.91 996.78 996.19 996.01 996.00 996.93 996.96 997.92 998.33 998.10 998.27 998.86 999.54 1000.02
1012.17 1007.52 1006.45 1006.88 1007.03 1005.69 1002.80 1000.02 999.11 998.81 998.60 997.29 996.27 996.43 996.12 996.64 996.88 996.72 996.64 996.64 997.10 997.32 997.82 996.96 996.44 997.14 997.64 998.00 997.27 997.70 997.18 996.50 995.97 995.99 995.97 996.15 996.56 997.56 998.53 998.80 998.84 999.07 998.90 999.25 999.80
1010.33 1006.35 1006.15 1006.38 1005.42 1003.34 1001.28 999.58 1000.13 998.57 998.56 997.72 997.04 996.11 995.67 996.13 996.24 995.84 995.87 996.18 996.94 997.10 997.61 997.26 996.30 996.46 997.04 997.33 996.98 996.65 996.69 996.47 996.18 996.74 996.69 996.60 997.67 998.24 998.92 999.28 999.45 999.66 999.81 1000.00 1000.10
1009.57 1005.58 1005.65 1005.50 1003.20 1001.26 1000.66 999.98 999.53 998.55 997.98 997.63 996.79 995.88 995.68 995.81 995.95 995.91 996.15 997.20 997.58 997.29 997.45 996.89 996.00 995.78 996.25 996.94 997.28 996.87 996.20 996.03 995.53 995.40 996.25 996.72 997.77 998.46 999.16 999.85 1000.21 1000.20 1000.48 1000.92 1000.91
1010.13 1005.34 1004.40 1004.69 1003.06 1001.28 999.58 999.31 998.88 998.96 998.00 997.45 996.41 996.27 996.29 996.08 996.19 996.19 996.37 997.45 997.64 997.45 997.96 997.41 995.61 995.83 995.63 995.25 996.09 996.51 996.36 996.37 995.54 995.51 995.71 996.27 997.64 998.86 999.50 1000.17 1000.84 1001.07 1001.15 1001.36 1001.51
1009.66 1005.11 1003.55 1002.41 1002.02 1001.07 999.94 999.01 998.56 998.16 998.42 997.88 997.12 996.38 995.95 995.63 995.74 995.75 996.14 997.25 997.72 998.21 998.13 997.48 995.54 995.87 995.98 996.08 996.09 996.08 996.14 996.53 996.43 995.86 996.17 996.64 997.17 998.76 999.93 1000.65 1001.29 1001.74 1001.98 1002.07 1002.26
1008.94 1006.06 1004.68 1002.91 1001.70 1000.71 1000.22 999.51 998.56 997.75 997.71 997.44 996.93 996.67 996.27 995.67 996.24 995.59 995.89 996.38 996.94 997.72 997.67 996.96 996.30 996.24 996.51 996.85 996.86 996.74 996.54 996.41 996.68 996.38 996.72 998.00 997.40 999.26 1000.57 1001.56 1001.84 1002.23 1002.58 1002.93 1003.23
1008.98 1008.26 1007.14 1003.52 1001.90 1001.00 999.69 999.47 998.94 998.61 998.24 997.88 997.05 996.72 996.80 996.85 997.12 996.53 995.91 995.60 995.86 996.74 996.86 996.56 995.91 996.72 996.45 997.01 997.22 996.66 996.24 996.58 996.59 997.01 997.06 996.82 997.59 998.94 1000.36 1001.20 1002.03 1002.51 1002.85 1003.24 1003.61
Thickness
5771 5776 5781 5786 5790 5794 5798 5802 5808 5812 5816 5820 5824 5829 5833 5837 5852 5866 5865 5876 5880 5882 5882 5892 5889 5893 5895 5893 5898 5892 5862 5847 5848 5844 5836 5850 5838 5848 5852 5834 5838 5838 5831 5826 5822
5767 5773 5777 5782 5788 5792 5796 5801 5806 5811 5816 5820 5824 5829 5834 5838 5854 5868 5880 5883 5883 5882 5882 5883 5886 5896 5893 5891 5898 5886 5870 5856 5872 5875 5852 5852 5848 5843 5836 5830 5825 5832 5836 5830 5821
5762 5768 5773 5778 5784 5789 5794 5798 5803 5809 5813 5819 5824 5829 5834 5838 5856 5877 5883 5883 5883 5883 5890 5898 5898 5895 5897 5897 5891 5886 5867 5879 5874 5874 5874 5857 5851 5858 5842 5834 5836 5824 5822 5824 5820
5757 5764 5769 5775 5780 5786 5791 5796 5802 5807 5812 5817 5823 5829 5835 5847 5838 5883 5883 5883 5882 5884 5888 5889 5891 5884 5892 5887 5894 5875 5885 5881 5879 5877 5871 5861 5865 5852 5852 5848 5856 5843 5833 5826 5821
5752 5758 5765 5772 5778 5783 5789 5794 5800 5805 5811 5815 5821 5826 5842 5848 5863 5888 5885 5883 5885 5880 5881 5882 5881 5889 5885 5892 5890 5884 5889 5891 5886 5881 5878 5875 5862 5858 5853 5860 5859 5847 5836 5829 5827
5748 5754 5761 5768 5775 5780 5787 5792 5798 5804 5809 5813 5819 5823 5836 5836 5891 5894 5892 5889 5888 5882 5883 5888 5886 5897 5885 5885 5880 5887 5893 5888 5888 5880 5880 5867 5860 5867 5860 5865 5851 5843 5836 5835 5832
5743 5750 5756 5763 5770 5778 5785 5791 5797 5803 5808 5813 5817 5826 5840 5856 5890 5893 5892 5891 5893 5889 5881 5896 5900 5885 5897 5884 5894 5888 5875 5882 5883 5883 5876 5876 5826 5850 5866 5863 5848 5841 5839 5838 5838
5737 5744 5751 5758 5766 5774 5782 5789 5797 5802 5808 5813 5816 5828 5839 5888 5888 5885 5892 5887 5895 5897 5894 5904 5900 5886 5886 5899 5888 5874 5881 5842 5876 5883 5879 5872 5812 5857 5870 5860 5848 5845 5842 5839 5839
5733 5739 5747 5754 5761 5770 5779 5788 5797 5803 5808 5812 5818 5831 5840 5879 5868 5886 5892 5879 5885 5890 5892 5893 5886 5872 5881 5863 5870 5877 5804 5830 5866 5885 5876 5870 5853 5863 5873 5864 5852 5849 5845 5841 5838
5731 5736 5743 5751 5758 5767 5778 5787 5795 5800 5807 5818 5829 5822 5852 5855 5878 5882 5891 5890 5875 5875 5868 5866 5866 5854 5861 5862 5844 5842 5857 5869 5859 5872 5874 5869 5864 5869 5871 5867 5859 5854 5850 5844 5840
5729 5735 5742 5749 5756 5762 5775 5795 5797 5802 5814 5832 5840 5842 5853 5871 5876 5867 5881 5875 5876 5864 5842 5860 5844 5838 5856 5872 5883 5872 5878 5827 5874 5874 5863 5867 5868 5871 5872 5869 5865 5861 5853 5850 5846
5726 5733 5740 5748 5755 5760 5767 5795 5808 5812 5806 5836 5840 5843 5853 5863 5846 5860 5878 5852 5852 5838 5853 5850 5837 5863 5875 5881 5873 5868 5865 5873 5882 5877 5865 5869 5868 5886 5877 5871 5873 5868 5862 5856 5854
5724 5731 5738 5748 5755 5765 5788 5799 5812 5814 5801 5829 5838 5837 5843 5849 5845 5850 5861 5857 5844 5838 5846 5840 5858 5868 5865 5865 5862 5858 5865 5875 5864 5874 5877 5871 5867 5869 5885 5880 5880 5880 5878 5872 5862
5722 5729 5736 5746 5756 5786 5788 5803 5806 5808 5787 5812 5819 5834 5843 5846 5837 5872 5866 5856 5846 5835 5847 5845 5867 5862 5855 5855 5864 5843 5881 5877 5866 5849 5840 5876 5831 5874 5877 5875 5878 5879 5878 5878 5870
5721 5727 5733 5735 5758 5777 5789 5798 5802 5797 5773 5819 5824 5858 5847 5837 5847 5844 5868 5855 5833 5835 5843 5837 5846 5849 5842 5851 5860 5851 5881 5872 5866 5857 5857 5866 5849 5873 5890 5881 5884 5879 5882 5883 5882
5722 5727 5733 5750 5753 5781 5788 5793 5790 5766 5776 5807 5824 5816 5820 5833 5839 5843 5842 5855 5856 5840 5845 5847 5867 5857 5851 5860 5863 5873 5867 5855 5856 5852 5830 5863 5857 5863 5875 5873 5885 5890 5887 5890 5890
5724 5729 5732 5751 5773 5781 5785 5780 5764 5774 5826 5804 5807 5819 5820 5819 5826 5825 5820 5819 5818 5805 5811 5828 5836 5850 5860 5845 5861 5858 5845 5815 5815 5827 5829 5879 5857 5864 5884 5891 5883 5878 5887 5893 5897
5727 5735 5751 5759 5773 5776 5777 5767 5760 5818 5816 5834 5826 5820 5811 5826 5825 5824 5819 5815 5834 5836 5839 5813 5803 5838 5856 5846 5844 5840 5846 5827 5801 5823 5849 5879 5840 5857 5889 5893 5887 5888 5891 5893 5892
5728 5758 5761 5776 5770 5774 5768 5765 5802 5816 5827 5818 5820 5807 5811 5823 5827 5823 5822 5823 5837 5841 5822 5831 5821 5857 5856 5856 5858 5851 5828 5869 5853 5871 5850 5861 5866 5879 5883 5881 5879 5880 5883 5883 5886
5723 5753 5772 5777 5774 5769 5762 5769 5803 5819 5822 5828 5805 5817 5805 5813 5810 5819 5820 5839 5838 5846 5854 5847 5822 5846 5846 5857 5860 5853 5876 5841 5850 5815 5809 5843 5837 5842 5849 5857 5876 5878 5877 5878 5880
5723 5751 5768 5774 5773 5763 5762 5789 5804 5820 5819 5818 5824 5817 5826 5817 5823 5824 5828 5845 5849 5843 5847 5850 5844 5831 5843 5828 5835 5839 5841 5860 5871 5860 5829 5821 5832 5867 5854 5862 5864 5871 5881 5881 5879
5730 5739 5767 5772 5752 5773 5776 5800 5778 5812 5821 5822 5829 5834 5836 5833 5826 5837 5836 5844 5857 5853 5825 5848 5848 5821 5826 5854 5870 5868 5855 5862 5837 5825 5848 5844 5825 5872 5865 5867 5869 5868 5873 5878 5880
5722 5753 5766 5767 5752 5774 5788 5792 5801 5807 5815 5817 5822 5844 5851 5836 5822 5838 5840 5846 5849 5846 5835 5852 5843 5824 5827 5842 5852 5844 5865 5872 5880 5879 5840 5827 5823 5869 5866 5860 5863 5863 5866 5866 5870
5711 5734 5754 5756 5771 5775 5786 5787 5791 5811 5815 5825 5832 5840 5832 5828 5839 5826 5829 5836 5847 5849 5839 5853 5855 5834 5823 5842 5852 5837 5853 5861 5870 5851 5852 5851 5838 5844 5848 5848 5851 5855 5860 5862 5862
5708 5734 5751 5750 5760 5773 5787 5793 5790 5794 5811 5821 5818 5830 5833 5826 5831 5830 5837 5830 5839 5827 5840 5845 5844 5849 5850 5855 5858 5855 5854 5852 5846 5864 5842 5850 5848 5843 5845 5844 5846 5850 5851 5851 5851
5697 5718 5740 5751 5766 5771 5760 5779 5789 5805 5809 5808 5814 5827 5837 5833 5827 5829 5838 5835 5826 5837 5836 5853 5833 5848 5835 5846 5847 5838 5851 5855 5851 5860 5857 5840 5838 5854 5849 5844 5840 5840 5840 5837 5837
5699 5707 5708 5738 5755 5759 5774 5781 5787 5798 5810 5815 5826 5828 5825 5828 5837 5847 5860 5867 5861 5838 5835 5842 5848 5830 5821 5839 5834 5822 5846 5847 5852 5856 5856 5842 5841 5851 5838 5837 5834 5834 5836 5832 5831